SCP
-0 0 0 0 -0 -0 0 0 0 0 0 0 0 0 0 0 0 0 0 0 0 0 0 0 0 0 0 -0 0 0 0 0 0 0 1 1 1 1 2 2 2 2 3 3
0 0 0 -0 -0 0 0 0 0 0 0 0 0 0 0 0 0 0 -0 0 0 0 0 0 0 0 0 -0 0 0 0 0 1 1 1 1 1 2 2 2 2 3 3 2
0 0 0 0 0 0 0 0 0 0 0 0 0 0 0 0 0 -0 -0 -0 0 0 0 -0 0 0 0 0 0 0 0 -0 0 1 1 1 1 2 2 2 3 2 2 2
0 0 0 0 0 0 0 0 0 0 0 0 0 0 0 0 0 0 0 -0 -0 -0 -0 -0 0 -0 0 0 0 0 0 0 1 1 1 1 2 2 2 3 3 3 2 2
0 0 0 -0 0 0 0 0 0 0 0 0 0 -0 -0 -0 0 -0 -0 0 -0 -0 -0 -0 0 -0 0 0 0 0 0 0 1 1 0 1 2 2 3 3 2 1 1 0
0 0 0 0 0 0 0 0 0 0 0 0 -0 -0 0 -0 -0 0 0 -0 0 0 0 -0 0 -0 -0 0 0 0 0 0 1 1 1 2 2 3 3 2 1 0 0 0
0 0 0 0 0 0 0 0 0 -0 -0 -0 -0 -0 -0 -0 -0 -0 -0 -0 0 0 0 -0 0 0 -0 -0 0 0 0 1 1 1 2 1 2 2 1 0 0 0 0 0
0 0 0 0 0 0 0 0 0 -0 -0 -0 0 -0 -0 -0 -0 -0 -0 -0 -0 0 0 0 0 0 -0 -0 0 0 0 0 1 1 1 1 1 0 0 0 0 0 0 0
0 0 0 0 0 0 0 0 -0 -0 -0 0 -0 -0 -0 -0 -0 -0 -0 -0 -0 -0 -0 -0 -0 0 -0 0 0 0 0 0 1 1 0 0 0 0 0 0 0 0 0 0
0 0 0 0 0 0 0 0 -0 -0 0 -0 -0 -0 -0 -0 -0 -0 -0 -0 -0 0 0 -0 -0 0 0 0 0 0 0 0 0 0 0 0 0 0 0 0 0 0 0 0
0 0 0 0 0 0 -0 -0 -0 0 0 -0 -0 -0 -0 -0 -0 -0 -0 -0 -0 -0 -0 0 -0 0 0 0 0 0 0 0 0 0 0 0 0 0 0 0 0 0 0 0
0 0 0 0 -0 -0 -0 0 -0 -0 -0 -0 -0 -0 -0 -0 -0 -0 -0 -0 -0 -0 -0 0 -0 0 0 0 0 0 0 0 0 0 0 0 0 0 0 0 0 0 0 0
0 0 0 0 -0 -0 -0 -0 -0 -0 -0 -0 -0 -0 -0 0 -0 -0 -0 -0 0 0 0 0 0 0 0 0 0 0 0 0 0 0 0 0 0 0 0 0 -0 0 0 0
0 0 -0 -0 -0 -0 -0 -0 -0 -0 0 0 -0 -0 0 -0 -0 -0 0 0 0 0 0 0 0 0 0 0 0 0 0 0 0 0 0 0 0 0 0 0 0 0 0 0
0 0 -0 -0 -0 -0 -0 -0 -0 0 0 0 -0 -0 -0 -0 0 0 0 0 0 0 0 0 0 0 0 0 0 0 0 0 0 0 0 0 0 0 0 0 0 0 0 0
0 -0 -0 -0 -0 0 -0 0 0 -0 -0 -0 -0 -0 0 0 0 0 0 0 0 0 0 0 0 0 0 0 0 0 0 0 0 0 0 0 0 0 0 0 0 0 0 0
-0 -0 0 0 -0 -0 0 0 -0 0 -0 -0 0 0 0 -0 0 0 0 0 0 0 0 0 0 0 0 0 0 0 0 0 0 0 0 0 0 0 0 0 0 0 0 0
-0 -0 -0 -0 0 -0 -0 0 0 0 -0 0 0 0 -0 0 0 0 0 0 0 0 0 0 0 0 0 0 0 0 0 0 0 0 0 0 0 0 0 0 0 0 0 0
-0 -0 0 0 0 -0 -0 0 -0 0 -0 -0 0 -0 -0 0 0 0 0 0 0 0 0 0 0 0 0 0 0 0 0 0 0 0 0 0 0 0 0 0 0 0 0 0
0 -0 0 0 0 0 -0 0 0 0 0 0 0 -0 0 0 0 0 0 0 0 0 0 0 0 0 0 0 0 0 0 0 0 0 0 0 0 0 0 0 0 0 0 0
0 -0 0 0 0 0 0 0 0 -0 -0 0 -0 0 0 0 0 0 0 0 0 0 0 0 0 0 0 0 0 0 0 0 0 0 0 0 0 0 0 0 0 0 0 0
0 -0 0 0 0 0 0 0 0 -0 -0 -0 0 -0 -0 0 0 0 0 0 0 0 0 0 0 0 0 0 0 0 0 0 0 0 0 0 0 0 0 0 0 0 0 0
0 -0 0 0 0 0 0 0 0 0 0 -0 -0 0 0 0 0 0 0 0 0 0 0 0 0 0 0 0 0 0 0 0 0 0 0 0 0 0 0 0 0 0 0 0
-0 0 0 0 0 0 0 0 -0 0 0 0 0 0 0 0 0 0 0 0 0 0 0 0 0 0 0 0 0 0 0 0 0 0 0 0 0 0 0 0 0 0 0 0
-0 -0 0 -0 0 0 0 -0 -0 0 0 0 0 0 0 0 0 0 0 0 0 0 0 0 0 0 0 0 0 0 0 0 0 0 0 0 0 0 0 0 0 0 0 0
-0 -0 0 0 0 0 -0 -0 -0 -0 0 0 0 0 0 0 0 0 0 0 0 0 0 0 0 0 0 0 0 0 0 0 0 0 0 0 0 0 0 0 0 0 0 0
0 -0 -0 -0 -0 -0 0 -0 -0 -0 -0 0 0 0 0 0 0 0 0 0 0 0 0 0 0 0 0 0 0 0 0 0 0 0 0 0 0 0 0 0 0 0 0 0
Wind_Speed_500mb
36 38 35 39 43 41 39 45 33 48 48 51 44 40 44 46 46 53 60 62 57 59 54 54 55 58 55 65 65 59 51 52 62 63 63 68 69 74 64 60 58 57 58 56
23 30 34 37 41 38 38 44 45 55 56 51 50 34 44 39 45 59 65 72 73 62 51 61 60 61 57 67 63 58 55 59 58 63 67 72 73 67 64 60 58 57 56 57
11 4 21 29 23 20 18 21 26 34 41 37 38 37 38 53 67 79 78 60 61 50 62 67 61 65 61 69 69 62 55 60 53 53 58 69 71 64 62 61 61 60 57 52
11 15 13 7 11 21 23 30 32 36 42 35 37 49 69 64 72 70 58 55 60 67 74 65 68 64 61 59 56 62 59 54 50 54 60 68 69 65 66 66 64 59 57 57
7 10 25 23 4 5 8 27 36 34 28 36 53 73 66 55 52 60 68 74 72 70 68 64 66 60 59 63 64 61 58 52 53 60 64 74 74 73 67 64 62 58 63 63
5 9 9 6 2 3 12 26 8 21 34 41 57 34 36 70 75 59 77 74 64 64 63 60 63 56 58 65 71 69 56 43 58 64 74 82 81 73 68 67 70 72 66 57
18 12 16 8 1 10 10 11 47 59 53 57 40 48 87 83 70 77 71 66 66 66 66 61 60 53 60 65 57 51 42 33 60 64 70 75 71 72 74 75 76 70 66 56
7 10 13 4 14 10 25 65 64 63 66 67 76 85 80 71 82 80 73 72 67 67 66 66 60 57 49 65 50 38 32 38 59 64 67 64 71 76 83 83 74 68 63 57
8 9 15 32 46 52 69 62 61 62 69 71 78 79 80 85 78 77 77 77 76 71 71 63 53 47 51 61 41 30 32 38 51 54 57 71 75 92 82 77 74 70 60 51
8 9 25 50 53 53 57 57 61 66 74 65 80 75 80 74 74 75 83 84 83 77 75 66 49 44 45 43 42 42 53 49 59 60 66 88 87 81 80 77 72 63 54 48
16 32 42 27 51 52 55 59 64 67 70 69 65 68 69 71 75 80 82 85 84 81 73 59 54 47 30 44 49 67 67 68 79 86 92 87 80 72 68 67 54 48 43 39
8 43 43 46 63 61 59 66 70 68 69 65 63 66 68 70 74 78 82 79 77 77 64 87 72 69 55 61 72 74 80 92 95 87 81 80 80 74 66 50 39 33 33 30
22 49 45 48 52 60 66 71 69 66 62 65 69 66 66 68 73 73 64 59 51 57 49 61 64 64 59 69 66 70 85 93 84 82 77 77 74 70 60 51 44 43 37 29
45 36 40 46 60 62 71 70 64 58 55 56 60 63 63 68 67 61 53 43 43 53 63 67 65 61 68 74 61 77 84 78 73 72 71 70 66 57 54 56 54 46 39 37
45 35 36 48 57 77 68 60 60 57 61 62 63 64 62 69 64 50 38 28 28 53 55 53 52 56 62 61 71 74 68 60 72 70 65 63 59 55 57 54 47 46 44 40
37 40 46 55 62 71 66 57 52 52 56 60 63 67 62 57 47 36 34 43 52 54 56 60 57 55 62 63 65 60 61 68 68 65 61 57 55 51 51 51 51 48 44 35
39 46 46 49 60 67 65 59 57 61 63 63 61 58 56 52 36 32 30 38 43 50 52 59 57 59 64 64 64 67 66 64 61 56 55 54 52 49 50 47 57 49 40 45
43 39 42 42 50 59 69 62 62 60 59 57 54 54 57 55 45 35 31 29 32 46 54 58 57 47 60 58 60 62 61 58 56 53 52 54 55 53 53 62 58 53 56 51
51 46 43 38 44 49 58 59 61 57 55 57 57 56 51 43 33 26 30 28 33 46 49 49 48 51 55 53 54 53 55 53 51 50 50 53 59 60 65 63 61 59 62 52
61 55 41 38 43 48 50 68 66 66 64 61 58 53 49 47 34 26 41 39 37 36 38 41 44 47 47 49 49 50 52 51 52 56 61 62 63 68 66 65 64 68 59 46
62 53 41 34 41 52 53 61 74 72 68 63 59 54 49 37 46 49 51 46 38 31 35 38 43 46 49 45 43 48 52 54 56 60 66 65 65 66 67 67 69 66 57 45
53 52 48 37 42 51 47 55 70 77 77 70 63 59 56 55 51 56 46 41 35 31 31 33 40 40 45 45 42 47 53 53 58 61 63 64 67 69 66 67 67 63 53 43
45 46 44 38 44 48 45 55 61 73 77 82 70 60 56 53 52 50 45 35 29 30 30 32 29 28 37 46 47 52 55 54 57 60 65 63 60 60 64 67 63 56 48 43
41 39 39 36 35 48 57 57 55 63 69 74 77 66 62 55 50 44 38 29 22 22 29 34 30 24 34 51 51 52 54 53 52 53 56 64 64 63 61 61 58 50 46 40
38 36 33 40 40 44 45 55 51 61 64 69 72 76 65 52 47 40 35 35 24 20 25 32 28 25 32 45 49 50 49 50 50 52 56 63 65 65 65 63 57 52 45 38
46 43 40 35 33 34 37 48 55 55 60 64 67 70 70 56 42 38 35 37 31 23 25 34 34 30 36 43 45 44 44 45 52 53 59 62 64 65 63 59 55 51 51 49
46 49 43 37 37 31 33 36 45 52 54 54 53 59 62 64 56 47 41 40 38 30 32 33 37 33 36 38 41 44 46 50 52 54 56 61 63 63 58 56 56 53 50 51
Wind_Direction_500mb
261 267 270 267 270 264 250 246 252 269 269 281 286 292 298 307 301 302 303 301 295 300 294 292 298 297 298 306 295 297 288 281 258 242 241 234 231 227 224 217 215 216 207 202
275 263 260 268 263 260 254 257 260 265 274 279 284 284 297 297 305 304 296 298 291 289 285 292 295 296 292 304 301 301 287 278 263 249 238 230 225 221 212 208 204 198 194 196
272 295 296 275 267 241 230 245 256 273 289 305 296 304 311 310 304 299 294 296 295 285 292 291 291 293 291 301 301 301 290 277 256 240 226 219 211 204 198 196 188 186 188 190
281 297 245 30 287 281 274 278 279 280 295 301 309 309 308 303 299 302 297 294 293 288 290 292 296 292 290 302 296 298 290 269 245 222 210 203 193 187 184 180 181 184 184 179
270 264 292 287 29 347 295 292 289 294 300 311 311 307 302 302 286 296 285 292 291 288 290 292 294 294 293 293 291 293 287 261 226 203 195 184 177 175 175 179 179 181 172 166
268 281 276 352 114 51 313 289 102 322 313 304 310 303 302 307 300 294 298 291 289 291 294 290 289 293 284 264 278 288 279 245 216 194 184 176 172 174 176 175 167 162 158 162
254 262 265 281 186 308 280 342 311 299 292 296 298 295 303 299 294 302 298 294 295 292 287 285 289 282 278 270 272 277 263 236 196 178 175 175 170 170 168 165 157 158 160 161
240 245 268 94 320 319 296 292 293 302 307 301 299 300 305 298 302 302 300 299 295 287 282 285 284 280 272 264 271 265 231 187 184 181 181 173 171 166 162 155 155 161 161 161
242 267 312 306 292 294 294 298 309 307 308 304 302 298 305 303 301 302 301 300 300 294 290 286 281 269 258 260 259 233 197 182 183 179 178 171 165 152 154 157 161 159 160 161
302 256 282 300 304 306 312 309 309 307 307 305 301 298 299 300 302 302 303 303 302 295 290 287 276 262 254 247 223 192 183 174 172 169 166 152 151 154 158 162 161 161 162 167
254 278 308 305 308 312 317 311 313 313 309 307 304 301 301 304 304 304 303 304 303 297 286 277 265 260 223 207 205 173 168 166 153 147 146 148 151 159 161 161 164 165 169 172
302 297 295 300 315 320 315 313 317 311 312 312 310 304 307 305 307 308 312 316 311 300 266 239 238 236 243 177 160 159 147 150 148 151 150 153 154 155 157 158 159 160 154 159
293 311 311 314 321 322 321 319 317 318 317 312 315 312 315 315 317 322 323 320 313 328 105 122 138 163 150 146 148 149 147 147 147 150 149 151 154 154 152 146 146 141 139 134
324 335 335 337 329 332 328 326 327 323 321 318 318 328 334 332 333 337 335 343 356 69 99 118 132 138 141 146 145 153 152 146 150 152 152 153 153 152 151 144 142 143 141 138
343 354 346 339 342 337 334 334 331 328 330 331 342 340 339 338 340 344 5 11 59 99 98 110 116 124 131 140 147 146 147 151 156 153 153 153 153 154 153 149 150 147 145 143
343 353 350 351 344 341 338 338 341 340 341 348 343 343 347 351 350 353 15 49 91 94 110 118 126 136 134 137 141 143 149 154 154 153 153 156 157 156 160 160 157 155 150 148
343 344 343 345 347 343 342 344 351 353 354 351 345 348 357 5 13 35 45 59 71 96 105 115 119 133 138 145 145 147 149 151 154 152 156 160 162 161 160 164 162 147 141 141
353 337 337 341 347 345 350 351 354 358 355 354 355 360 8 15 18 44 56 72 79 99 109 116 123 132 137 144 147 150 154 158 163 162 161 161 159 158 156 150 147 144 142 143
349 342 333 343 351 352 357 6 11 5 3 4 8 11 19 24 27 52 67 83 95 98 103 117 127 133 138 144 148 149 154 157 160 160 161 157 156 156 152 150 147 146 147 146
360 356 344 341 354 2 0 10 13 12 18 15 16 17 21 34 41 66 75 82 89 87 108 123 131 134 142 142 143 143 149 152 152 149 150 152 152 152 151 149 149 149 147 137
359 353 348 348 -0 5 8 8 17 22 21 21 17 21 24 34 45 58 80 79 78 95 118 134 141 142 141 143 143 145 150 149 148 149 152 152 151 150 151 154 153 152 148 141
5 357 357 360 4 6 8 12 20 24 27 27 22 19 27 35 44 55 61 66 70 86 114 134 145 147 148 153 151 147 151 149 149 151 151 152 156 157 157 156 155 153 152 142
3 6 3 16 11 8 14 22 23 20 27 28 26 26 30 33 37 46 54 64 72 86 105 118 126 140 153 158 158 157 156 153 151 153 156 157 158 159 157 159 158 157 156 144
5 13 14 20 21 17 18 19 23 26 24 28 31 29 25 27 41 48 49 65 81 93 100 106 112 132 156 159 159 160 160 160 157 157 156 157 156 159 160 163 166 164 162 156
8 15 15 13 15 17 14 16 23 26 27 26 29 32 34 33 37 36 48 56 72 106 107 108 115 129 152 160 162 164 163 162 159 156 155 158 158 161 163 167 170 167 167 162
17 20 21 11 9 13 16 16 16 23 24 24 25 26 30 35 44 51 57 68 67 87 104 110 117 135 145 152 159 161 163 162 161 162 161 160 162 163 166 170 173 171 167 163
16 23 25 20 21 21 20 18 14 14 22 23 22 23 25 29 38 45 50 63 73 73 86 95 109 121 135 141 148 152 158 159 163 165 167 166 166 167 168 168 166 164 161 157
Wind_Speed_850mb
36 38 35 39 43 41 39 45 33 48 48 51 44 40 44 46 46 53 60 62 57 59 54 54 55 58 55 65 65 59 51 52 62 63 63 68 69 74 64 60 58 57 58 56
23 30 34 37 41 38 38 44 45 55 56 51 50 34 44 39 45 59 65 72 73 62 51 61 60 61 57 67 63 58 55 59 58 63 67 72 73 67 64 60 58 57 56 57
11 4 21 29 23 20 18 21 26 34 41 37 38 37 38 53 67 79 78 60 61 50 62 67 61 65 61 69 69 62 55 60 53 53 58 69 71 64 62 61 61 60 57 52
11 15 13 7 11 21 23 30 32 36 42 35 37 49 69 64 72 70 58 55 60 67 74 65 68 64 61 59 56 62 59 54 50 54 60 68 69 65 66 66 64 59 57 57
7 10 25 23 4 5 8 27 36 34 28 36 53 73 66 55 52 60 68 74 72 70 68 64 66 60 59 63 64 61 58 52 53 60 64 74 74 73 67 64 62 58 63 63
5 9 9 6 2 3 12 26 8 21 34 41 57 34 36 70 75 59 77 74 64 64 63 60 63 56 58 65 71 69 56 43 58 64 74 82 81 73 68 67 70 72 66 57
18 12 16 8 1 10 10 11 47 59 53 57 40 48 87 83 70 77 71 66 66 66 66 61 60 53 60 65 57 51 42 33 60 64 70 75 71 72 74 75 76 70 66 56
7 10 13 4 14 10 25 65 64 63 66 67 76 85 80 71 82 80 73 72 67 67 66 66 60 57 49 65 50 38 32 38 59 64 67 64 71 76 83 83 74 68 63 57
8 9 15 32 46 52 69 62 61 62 69 71 78 79 80 85 78 77 77 77 76 71 71 63 53 47 51 61 41 30 32 38 51 54 57 71 75 92 82 77 74 70 60 51
8 9 25 50 53 53 57 57 61 66 74 65 80 75 80 74 74 75 83 84 83 77 75 66 49 44 45 43 42 42 53 49 59 60 66 88 87 81 80 77 72 63 54 48
16 32 42 27 51 52 55 59 64 67 70 69 65 68 69 71 75 80 82 85 84 81 73 59 54 47 30 44 49 67 67 68 79 86 92 87 80 72 68 67 54 48 43 39
8 43 43 46 63 61 59 66 70 68 69 65 63 66 68 70 74 78 82 79 77 77 64 87 72 69 55 61 72 74 80 92 95 87 81 80 80 74 66 50 39 33 33 30
22 49 45 48 52 60 66 71 69 66 62 65 69 66 66 68 73 73 64 59 51 57 49 61 64 64 59 69 66 70 85 93 84 82 77 77 74 70 60 51 44 43 37 29
45 36 40 46 60 62 71 70 64 58 55 56 60 63 63 68 67 61 53 43 43 53 63 67 65 61 68 74 61 77 84 78 73 72 71 70 66 57 54 56 54 46 39 37
45 35 36 48 57 77 68 60 60 57 61 62 63 64 62 69 64 50 38 28 28 53 55 53 52 56 62 61 71 74 68 60 72 70 65 63 59 55 57 54 47 46 44 40
37 40 46 55 62 71 66 57 52 52 56 60 63 67 62 57 47 36 34 43 52 54 56 60 57 55 62 63 65 60 61 68 68 65 61 57 55 51 51 51 51 48 44 35
39 46 46 49 60 67 65 59 57 61 63 63 61 58 56 52 36 32 30 38 43 50 52 59 57 59 64 64 64 67 66 64 61 56 55 54 52 49 50 47 57 49 40 45
43 39 42 42 50 59 69 62 62 60 59 57 54 54 57 55 45 35 31 29 32 46 54 58 57 47 60 58 60 62 61 58 56 53 52 54 55 53 53 62 58 53 56 51
51 46 43 38 44 49 58 59 61 57 55 57 57 56 51 43 33 26 30 28 33 46 49 49 48 51 55 53 54 53 55 53 51 50 50 53 59 60 65 63 61 59 62 52
61 55 41 38 43 48 50 68 66 66 64 61 58 53 49 47 34 26 41 39 37 36 38 41 44 47 47 49 49 50 52 51 52 56 61 62 63 68 66 65 64 68 59 46
62 53 41 34 41 52 53 61 74 72 68 63 59 54 49 37 46 49 51 46 38 31 35 38 43 46 49 45 43 48 52 54 56 60 66 65 65 66 67 67 69 66 57 45
53 52 48 37 42 51 47 55 70 77 77 70 63 59 56 55 51 56 46 41 35 31 31 33 40 40 45 45 42 47 53 53 58 61 63 64 67 69 66 67 67 63 53 43
45 46 44 38 44 48 45 55 61 73 77 82 70 60 56 53 52 50 45 35 29 30 30 32 29 28 37 46 47 52 55 54 57 60 65 63 60 60 64 67 63 56 48 43
41 39 39 36 35 48 57 57 55 63 69 74 77 66 62 55 50 44 38 29 22 22 29 34 30 24 34 51 51 52 54 53 52 53 56 64 64 63 61 61 58 50 46 40
38 36 33 40 40 44 45 55 51 61 64 69 72 76 65 52 47 40 35 35 24 20 25 32 28 25 32 45 49 50 49 50 50 52 56 63 65 65 65 63 57 52 45 38
46 43 40 35 33 34 37 48 55 55 60 64 67 70 70 56 42 38 35 37 31 23 25 34 34 30 36 43 45 44 44 45 52 53 59 62 64 65 63 59 55 51 51 49
46 49 43 37 37 31 33 36 45 52 54 54 53 59 62 64 56 47 41 40 38 30 32 33 37 33 36 38 41 44 46 50 52 54 56 61 63 63 58 56 56 53 50 51
Wind_Direction_850mb
261 267 270 267 270 264 250 246 252 269 269 281 286 292 298 307 301 302 303 301 295 300 294 292 298 297 298 306 295 297 288 281 258 242 241 234 231 227 224 217 215 216 207 202
275 263 260 268 263 260 254 257 260 265 274 279 284 284 297 297 305 304 296 298 291 289 285 292 295 296 292 304 301 301 287 278 263 249 238 230 225 221 212 208 204 198 194 196
272 295 296 275 267 241 230 245 256 273 289 305 296 304 311 310 304 299 294 296 295 285 292 291 291 293 291 301 301 301 290 277 256 240 226 219 211 204 198 196 188 186 188 190
281 297 245 30 287 281 274 278 279 280 295 301 309 309 308 303 299 302 297 294 293 288 290 292 296 292 290 302 296 298 290 269 245 222 210 203 193 187 184 180 181 184 184 179
270 264 292 287 29 347 295 292 289 294 300 311 311 307 302 302 286 296 285 292 291 288 290 292 294 294 293 293 291 293 287 261 226 203 195 184 177 175 175 179 179 181 172 166
268 281 276 352 114 51 313 289 102 322 313 304 310 303 302 307 300 294 298 291 289 291 294 290 289 293 284 264 278 288 279 245 216 194 184 176 172 174 176 175 167 162 158 162
254 262 265 281 186 308 280 342 311 299 292 296 298 295 303 299 294 302 298 294 295 292 287 285 289 282 278 270 272 277 263 236 196 178 175 175 170 170 168 165 157 158 160 161
240 245 268 94 320 319 296 292 293 302 307 301 299 300 305 298 302 302 300 299 295 287 282 285 284 280 272 264 271 265 231 187 184 181 181 173 171 166 162 155 155 161 161 161
242 267 312 306 292 294 294 298 309 307 308 304 302 298 305 303 301 302 301 300 300 294 290 286 281 269 258 260 259 233 197 182 183 179 178 171 165 152 154 157 161 159 160 161
302 256 282 300 304 306 312 309 309 307 307 305 301 298 299 300 302 302 303 303 302 295 290 287 276 262 254 247 223 192 183 174 172 169 166 152 151 154 158 162 161 161 162 167
254 278 308 305 308 312 317 311 313 313 309 307 304 301 301 304 304 304 303 304 303 297 286 277 265 260 223 207 205 173 168 166 153 147 146 148 151 159 161 161 164 165 169 172
302 297 295 300 315 320 315 313 317 311 312 312 310 304 307 305 307 308 312 316 311 300 266 239 238 236 243 177 160 159 147 150 148 151 150 153 154 155 157 158 159 160 154 159
293 311 311 314 321 322 321 319 317 318 317 312 315 312 315 315 317 322 323 320 313 328 105 122 138 163 150 146 148 149 147 147 147 150 149 151 154 154 152 146 146 141 139 134
324 335 335 337 329 332 328 326 327 323 321 318 318 328 334 332 333 337 335 343 356 69 99 118 132 138 141 146 145 153 152 146 150 152 152 153 153 152 151 144 142 143 141 138
343 354 346 339 342 337 334 334 331 328 330 331 342 340 339 338 340 344 5 11 59 99 98 110 116 124 131 140 147 146 147 151 156 153 153 153 153 154 153 149 150 147 145 143
343 353 350 351 344 341 338 338 341 340 341 348 343 343 347 351 350 353 15 49 91 94 110 118 126 136 134 137 141 143 149 154 154 153 153 156 157 156 160 160 157 155 150 148
343 344 343 345 347 343 342 344 351 353 354 351 345 348 357 5 13 35 45 59 71 96 105 115 119 133 138 145 145 147 149 151 154 152 156 160 162 161 160 164 162 147 141 141
353 337 337 341 347 345 350 351 354 358 355 354 355 360 8 15 18 44 56 72 79 99 109 116 123 132 137 144 147 150 154 158 163 162 161 161 159 158 156 150 147 144 142 143
349 342 333 343 351 352 357 6 11 5 3 4 8 11 19 24 27 52 67 83 95 98 103 117 127 133 138 144 148 149 154 157 160 160 161 157 156 156 152 150 147 146 147 146
360 356 344 341 354 2 0 10 13 12 18 15 16 17 21 34 41 66 75 82 89 87 108 123 131 134 142 142 143 143 149 152 152 149 150 152 152 152 151 149 149 149 147 137
359 353 348 348 -0 5 8 8 17 22 21 21 17 21 24 34 45 58 80 79 78 95 118 134 141 142 141 143 143 145 150 149 148 149 152 152 151 150 151 154 153 152 148 141
5 357 357 360 4 6 8 12 20 24 27 27 22 19 27 35 44 55 61 66 70 86 114 134 145 147 148 153 151 147 151 149 149 151 151 152 156 157 157 156 155 153 152 142
3 6 3 16 11 8 14 22 23 20 27 28 26 26 30 33 37 46 54 64 72 86 105 118 126 140 153 158 158 157 156 153 151 153 156 157 158 159 157 159 158 157 156 144
5 13 14 20 21 17 18 19 23 26 24 28 31 29 25 27 41 48 49 65 81 93 100 106 112 132 156 159 159 160 160 160 157 157 156 157 156 159 160 163 166 164 162 156
8 15 15 13 15 17 14 16 23 26 27 26 29 32 34 33 37 36 48 56 72 106 107 108 115 129 152 160 162 164 163 162 159 156 155 158 158 161 163 167 170 167 167 162
17 20 21 11 9 13 16 16 16 23 24 24 25 26 30 35 44 51 57 68 67 87 104 110 117 135 145 152 159 161 163 162 161 162 161 160 162 163 166 170 173 171 167 163
16 23 25 20 21 21 20 18 14 14 22 23 22 23 25 29 38 45 50 63 73 73 86 95 109 121 135 141 148 152 158 159 163 165 167 166 166 167 168 168 166 164 161 157